Regional Weather Roundup
Issued by NWS

Home | Current Version | Previous Version | Graphics & Text | Print | Product List | Glossary On
Versions: 1 2 3 4 5 6 7 8 9 10 11 12 13 14 15 16 17 18 19 20 21 22 23 24 25 26 27 28 29 30 31 32 33 34 35 36 37 38 39 40 41 42 43 44 45 46 47 48 49 50
000
ASUS45 KTFX 220219
RWRMT
MONTANA HOURLY WEATHER ROUNDUP
NATIONAL WEATHER SERVICE GREAT FALLS MT
819 PM MDT THU AUG 21 2014

NOTE: "FAIR" INDICATES FEW OR NO CLOUDS BELOW 12000 FEET WITH NO
SIGNIFICANT WEATHER AND/OR OBSTRUCTIONS TO VISIBILITY.

* THESE STATIONS ARE NOT UNDER NWS QUALITY CONTROL. THEY DO NOT
   REPORT WEATHER SUCH AS PRECIPITATION OR FOG.

MTZ001>007-043-220300-
WEST OF THE DIVIDE
CITY           SKY/WX    TMP DP  RH WIND       PRES   REMARKS
KALISPELL      MOCLDY    63  48  58 NE15      30.03S
MISSOULA       TSTM      61  55  81 NW15      30.00R
BUTTE          CLOUDY    59  46  62 S13       30.10R
MULLAN PASS    MOCLDY    52  45  77 E6        30.09S
* ESSEX        N/A       57  45  64 E2         N/A
* LINCOLN      N/A       53  50  90 E6G11      N/A
* LOOKOUT PASS N/A       59  50  72 S1         N/A
* POLSON       N/A       61  50  67 N2         N/A
* RONAN APT    MOCLDY    66  54  65 N8         N/A
* SEELEY LAKE  N/A       64  46  52 S4G14      N/A
* THOMP F APT  MOCLDY    50  46  86 N4G12      N/A
* YAAK HILL    N/A       61  55  81 NW2        N/A
$$

MTZ008-052>055-220300-
SOUTHWEST MONTANA
CITY           SKY/WX    TMP DP  RH WIND       PRES   REMARKS
BOZEMAN        MOCLDY    64  48  56 CALM      30.07R
DILLON         CLOUDY    55  50  83 NE9       30.07S
W YELLOWSTONE  CLOUDY    48  46  93 CALM      30.21S
* THREE FORKS  CLOUDY    66  66 100 N/A        N/A
* BOULDER HILL N/A       53  45  74 N14        N/A
* MONIDA PASS  N/A       50  44  80 SE10       N/A
* RAYNOLDS PAS N/A       48  26  42 SE16G21    N/A
* WHITEHALL    N/A       65  50  58 NE3G9      N/A
* WISE RIVER   N/A       63  41  45 SE8G13     N/A
$$

MTZ009>010-012-014-046-048-049-054-220300-
EAST SLOPES AND CENTRAL MONTANA
CITY           SKY/WX    TMP DP  RH WIND       PRES   REMARKS
CUT BANK       CLOUDY    54  48  80 N13       30.17R
GREAT FALLS    CLOUDY    57  52  83 NE13      30.13R
HELENA         CLOUDY    61  54  78 W7        30.10R
MALMSTROM AFB  MOCLDY    57  54  90 NE16G21   30.14R
* CONRAD       PTCLDY    54  54 100 NW7        N/A
* DEARBORN     N/A       62  50  65 NE7        N/A
* EAST GLACIER N/A       47  47 100 E9G15      N/A
* MONARCH      N/A       54  45  72 N7         N/A
* PENDROY      N/A       51  50  96 NE9G14     N/A
* ROGERS PASS  N/A       50  48  93 S2         N/A
* SAINT MARY   N/A       48  47  96 N3G8       N/A
* SWEET GRASS  N/A       51  51 100 NE13       N/A
* WHITE SULPH  N/A       60  47  62 NE5G10     N/A
$$

MTZ011-013-016-021-035-040-045-047-050-051-220300-
NORTH CENTRAL MONTANA
CITY           SKY/WX    TMP DP  RH WIND       PRES   REMARKS
HAVRE          CLOUDY    59  50  72 N14       30.11R
LEWISTOWN      CLEAR     59  54  84 SW6       30.11S
* FORT BENTON  PTCLDY    57  50  78 N9        30.12R
* CHESTER      N/A       56  49  77 E6G12      N/A
* DENTON       N/A       62  51  67 W2         N/A
* GEYSER       N/A       61  47  60 NE9        N/A
* JUDITH GAP   N/A       57  50  78 VRB9       N/A
* LOMA         N/A       58  51  78 VRB20G27    N/A
$$

MTZ017>020-022>027-061-062-220300-
NORTHEAST MONTANA
CITY           SKY/WX    TMP DP  RH WIND       PRES   REMARKS
GLASGOW        LGT RAIN  61  59  93 NE12      30.04R
GLENDIVE       CLOUDY    64  63  97 N5        30.02R
JORDAN         CLOUDY    63  57  81 NE7       30.05R
SIDNEY         CLOUDY    70  63  79 CALM      30.00R
WOLF POINT     LGT RAIN  63  61  93 W3        30.04R
* BEAVER HILL  N/A       65  59  81 N7         N/A
* CIRCLE       N/A       63  60  90 NW2        N/A
* LINDSAY DVD  N/A       62  57  84 NW15G20    N/A
* SACO         N/A       62  58  87 NE6        N/A
$$

MTZ028>042-056>058-220300-
SOUTHCENTRAL AND SOUTHEAST MONTANA
CITY           SKY/WX    TMP DP  RH WIND       PRES   REMARKS
BAKER          RAIN      64  61  90 N9        30.02R
BILLINGS       MOCLDY    61  55  81 N3        30.10R
LIVINGSTON     MOCLDY    61  48  62 E13       30.10R
MILES CITY     LGT RAIN  64  61  90 NW9       30.02R
* LAUREL APT   PTCLDY    61  55  81 N/A        N/A
* ROUNDUP APT  MOCLDY    61  54  78 N/A        N/A
* ALZADA       N/A       75  54  48 E4         N/A
* HYSHAM       N/A       60  54  81 W2         N/A
* LAME DEER    N/A       58  58 100 N11        N/A
* REED POINT   N/A       60  54  81 E6         N/A
* ROSCOE HILL  N/A       55  48  77 NE3        N/A
$$

REGIONAL REPORTS...DAKOTAS
CITY           SKY/WX    TMP DP  RH WIND       PRES   REMARKS
WILLISTON      PTCLDY    70  57  64 NE7       29.99R
DICKINSON      CLOUDY    66  59  78 N7        29.97R
BEACH          LGT RAIN  64  64 100 N5        30.03R
CROSBY         CLEAR     61  61 100 N7        30.01R
TIOGA          CLEAR     59  59 100 NE3       30.03R
WATFORD CITY   CLEAR     64  57  78 NE8       29.98R
BISMARCK       CLEAR     73  61  66 N5        29.94R
GRAND FORKS    MOCLDY    72  70  93 N3        29.85R
FARGO          CLEAR     73  68  84 CALM      29.86R
BUFFALO SD     PTCLDY    70  61  73 NE14      29.89F
RAPID CITY     PTCLDY    72  55  55 NE12      29.96R
$$

REGIONAL REPORTS...WYOMING/IDAHO/WASHINGTON
CITY           SKY/WX    TMP DP  RH WIND       PRES   REMARKS
GILLETTE       CLOUDY    64  55  73 N14       30.04R
SHERIDAN       CLOUDY    63  57  81 NW8       30.08R
CODY           MOCLDY    54  48  80 N10       30.15R
YELLOWSTONE LA MOCLDY    50  43  77 W7        30.27R
SALMON         MOCLDY    64  54  70 N9        29.94F
MULLAN PASS    MOCLDY    52  45  77 E6        30.09S
SAND POINT     CLOUDY    64  54  70 NE14      29.95R
SPOKANE        MOCLDY    75  48  39 N17       29.90S
$$

REGIONAL REPORTS...ALBERTA
CITY           SKY/WX    TMP DP  RH WIND       PRES   REMARKS
CALGARY        CLOUDY    52  45  77 NE8       30.21R
LETHBRIDGE     CLOUDY    55  52  90 E5        30.18S
MEDICINE HAT   MOCLDY    57  54  90 NE5       30.15S
EDMONTON       MOCLDY    55  41  59 NE8       30.23R
WATERTON GATE  N/A       48  46  93 S1         N/A
CARDSTON       N/A       52  48  86 NE3        N/A
$$

REGIONAL REPORTS...SASKATCHEWAN
CITY           SKY/WX    TMP DP  RH WIND       PRES   REMARKS
SWIFT CURRENT  FOG       55  55 100 NW10      30.12S
REGINA         MOCLDY    63  54  73 N14       30.06R
VAL MARIE      N/A       61  57  87 N9G17      N/A
ASSINIBOIA     N/A       63  54  73 NE9        N/A
CORONACH       N/A       63  54  73 N9         N/A

$$




USA.gov is the U.S. government's official web portal to all federal, state and local government web resources and services.